Погода в Эз-Завии

Ливия     32°45′37″N   12°43′34″E
темп.,
°C
ветер,
м/с
пор.,
м/с
влажн.,
%
обл.,
%
осадки,
мм/ч
давл.,
гПа
погр.,
м
20 апреля, вт
вт2023:00+15в45480 0.0 1022324
02:00+14юв575645 0.0 1021228
05:00+14юв56535 0.0 1020155
08:00+15ююв3450100 0.0 1020150
11:00+20ююв13380 0.0 1020609
14:00+22ссв52325 0.0 1018433
17:00+21всв8740100 0.0 1016397
20:00+20всв7947100 0.0 1017284
21 апреля, ср
ср2123:00+19в585387 0.0 1018184
02:00+19юв464228 0.0 1017109
05:00+18юв47415 0.0 1016128
08:00+19вюв46395 0.0 1015153
11:00+25ююв35275 0.0 1016589
14:00+26ссв65354 0.0 1014258
17:00+24ссв67445 0.0 1011174
20:00+27юв59305 0.0 1010188
22 апреля, чт
чт2223:00+23юв122033100 0.0 1012499
02:00+24ююв11182537 0.0 1011415
05:00+23ююв916250 0.0 1010302
08:00+24ююв914240 0.0 1011338
11:00+29ю79201 0.0 1011692
14:00+30сз35245 0.0 10091549
17:00+32ю462214 0.0 10062224
20:00+30юв712234 0.0 1006297
23 апреля, пт
пт2323:00+27в713275 0.0 1008311
02:00+25в5730100 0.0 100693
05:00+23всв4440100 0.0 100535
08:00+22зюз6845100 0.0 1006173
11:00+24з794855 0.0 1007524
14:00+23зсз91061100 0.0 1008622
17:00+19сз10117676 0.0 1009640
20:00+18сз5680100 0.1 1011534
24 апреля, сб
сб2423:00+18сз688298 0.0 1013476
02:00+17ссз6782100 0.0 1013604
05:00+17ссз468012 0.0 1013549
08:00+17сз56784 0.0 1015618
11:00+18сз777011 0.0 1016891
14:00+19ссз786811 0.0 1016922
17:00+18ссз78685 0.0 1016827
20:00+17ссз67713 0.0 1017698